Flag for U.S.A. Weather past 2 weeks in Clearwater, Florida, U.S.A.

Now
88 °F

Partly sunny.


Feels Like: 100 °F
Forecast: 78 / 90 °F
Wind: 5 mph from Southeast

Location: St. Petersburg / Clearwater International Airport

Current Time: Jul 4, 2015 at 2:06:00 PM

Latest Report: Jul 4, 2015 at 12:53 PM


Visibility: 10 mi

Pressure: 30.13 "Hg

Humidity: 70%

Dew point: 77 °F

Location of ClearwaterLocation

Historic Weather in Clearwater — Graph

°F

Clearwater temperature yesterday

Maximum temperature yesterday: 91 °F (at 3:53 PM)
Minimum temperature yesterday: 76 °F (at 4:53 AM)
Average temperature yesterday: 83 °F

Past Weeks' High & Low Weather Summary

 TemperatureHumidityPressure
High94 °F (Jun 21, 2:53 PM)96% (Jun 28, 9:04 AM)30.16 "Hg (Jun 28, 9:04 AM)
Low74 °F (Jun 23, 8:53 PM)50% (Jun 27, 1:53 PM)29.98 "Hg (Jun 28, 3:53 AM)
Average84 °F74%30.09 "Hg
* Reported Jun 19 12:53 PM — Jul 4 12:53 PM, Clearwater, Weather by CustomWeather, © 2015

Note: Actual official high and low records may vary slightly from our data, if they occured in-between our weather recording intervals... More about our weather records

Advertising

Clearwater weather history for previous 24 hours

 ConditionsComfort  
Time TempWeatherWind HumidityBarometerVisibility
12:53 PM
Sat, Jul 4
88 °FPartly sunny.5 mph70%30.13 "Hg10 mi
11:53 AM91 °FSunny.N/A60%30.13 "Hg10 mi
10:53 AM87 °FSunny.No wind65%30.13 "Hg10 mi
9:53 AM85 °FSunny.8 mph70%30.12 "Hg10 mi
8:53 AM83 °FSunny.7 mph74%30.12 "Hg10 mi
7:53 AM79 °FSunny.5 mph84%30.10 "Hg10 mi
6:53 AM75 °FClear.No wind94%30.10 "Hg10 mi
5:53 AM77 °FClear.No wind88%30.08 "Hg10 mi
4:53 AM77 °FClear.5 mph85%30.07 "Hg10 mi
3:53 AM78 °FClear.No wind82%30.06 "Hg10 mi
2:53 AM78 °FClear.5 mph82%30.08 "Hg10 mi
1:53 AM78 °FClear.3 mph84%30.09 "Hg10 mi
12:53 AM78 °FClear.5 mph82%30.09 "Hg10 mi
11:53 PM
Fri, Jul 3
78 °FClear.6 mph82%30.11 "Hg10 mi
10:53 PM79 °FClear.7 mph79%30.11 "Hg10 mi
9:53 PM80 °FPassing clouds.18 mph74%30.10 "Hg10 mi
8:53 PM85 °FPassing clouds.10 mph68%30.09 "Hg10 mi
7:53 PM86 °FSunny.6 mph65%30.06 "Hg10 mi
6:53 PM87 °FSunny.5 mph65%30.06 "Hg10 mi
5:53 PM88 °FThundershowers. Sunny.8 mph67%30.04 "Hg10 mi
4:53 PM90 °FSunny.8 mph63%30.04 "Hg10 mi
3:53 PM91 °FSunny.7 mph57%30.06 "Hg10 mi
2:53 PM81 °FPassing clouds.6 mph74%30.07 "Hg10 mi
Weather by CustomWeather, © 2015

See weather overviewHow to use our weather pages